C/2019 M3 ( ATLAS )

Japanese version
Home page
Updated on August 19, 2019

---------------------------------------------------------------------

* Profile

Discovery Date June 30, 2019
Magnitude 19.3 mag
Discoverer Asteroid Terrestrial-Impact Last Alert System (ATLAS) search program

* Orbital Elements

Epoch 2018 Dec. 28.0 TT = JDT 2458480.5                                         
T 2019 Jan. 3.00567 TT                                  Williams                
q   2.4165931            (2000.0)            P               Q                  
z  -0.0009748      Peri.   87.89408     +0.03616359     +0.90750288             
 +/-0.0000521      Node   154.89895     -0.24183723     -0.39836635             
e   1.0023556      Incl.   99.42760     +0.96964269     -0.13320203             
H                                                                               
From 180 observations 2019 June 30-Aug. 7, mean residual 0".5.                  

* Magnitudes Graph

        m1 = 11.5 + 5 log d + 10.0 log r

---------------------------------------------------------------------

The orbital elements are published on M.P.E.C. 2019-Q12.
The magnitudes graphs are made with Comet for Windows.

---------------------------------------------------------------------

Copyright(C) Seiichi Yoshida (comet@aerith.net). All rights reserved.